This is the latest recevied weather packets stored in our database for station/object KG4GJX. If no packets are shown the sender has not sent any weather packets the latest 10 day(s).
| Time | Temp. | Humidity | Pressure | Rain* | Wind** | Luminosity | Snow |
|---|---|---|---|---|---|---|---|
| 1777674427 | 20° C | 49% | 1011.5 hPa | 0 mm | - | - | - |
| 1777673764 | 20° C | 46% | 1011.5 hPa | 0 mm | - | - | - |
| 1777673101 | 20.56° C | 50% | 1011.8 hPa | 0 mm | - | - | - |
| 1777672439 | 21.11° C | 47% | 1012.1 hPa | 0 mm | - | - | - |
| 1777671777 | 21.67° C | 46% | 1012.1 hPa | 0 mm | - | - | - |
| 1777671114 | 21.67° C | 47% | 1012.1 hPa | 0 mm | - | - | - |
| 1777670452 | 21.11° C | 48% | 1012.5 hPa | 0 mm | - | - | - |
| 1777669789 | 21.67° C | 48% | 1012.5 hPa | 0 mm | - | - | - |
| 1777669127 | 21.67° C | 48% | 1012.5 hPa | 0 mm | - | - | - |
| 1777668465 | 21.67° C | 46% | 1012.5 hPa | 0 mm | - | - | - |
| 1777667802 | 21.11° C | 46% | 1012.8 hPa | 0 mm | - | - | - |
| 1777667140 | 21.11° C | 46% | 1012.8 hPa | 0 mm | - | - | - |
| 1777666478 | 21.11° C | 45% | 1012.8 hPa | 0 mm | - | - | - |
| 1777665815 | 21.67° C | 43% | 1013.2 hPa | 0 mm | - | - | - |
| 1777665153 | 21.67° C | 46% | 1013.2 hPa | 0 mm | - | - | - |
| 1777664490 | 21.67° C | 46% | 1013.5 hPa | 0 mm | - | - | - |
| 1777663828 | 21.11° C | 46% | 1013.5 hPa | 0 mm | - | - | - |
| 1777663165 | 21.67° C | 41% | 1013.5 hPa | 0 mm | - | - | - |
| 1777662503 | 21.67° C | 46% | 1013.5 hPa | 0 mm | - | - | - |
| 1777661841 | 21.11° C | 46% | 1013.5 hPa | 0 mm | - | - | - |
| 1777661178 | 20.56° C | 42% | 1013.5 hPa | 0 mm | - | - | - |
| 1777660516 | 20.56° C | 44% | 1013.5 hPa | 0 mm | - | - | - |
| 1777659854 | 20° C | 47% | 1013.8 hPa | 0 mm | - | - | - |
| 1777659191 | 20° C | 43% | 1013.8 hPa | 0 mm | - | - | - |
| 1777658529 | 20.56° C | 41% | 1013.8 hPa | 0 mm | - | - | - |
* Rain latest hour (hover to see other rain measurements)
** Current wind speed in m/s (hover to see current wind gust speed)